Aspen, CO

7:47 PM MDT on May 20, 2018 (GMT -0600)
Aspen-Pitkin County / Sardy Field

Weather History for KASE - March, 2013

Change the Weather History Date:

Tuesday, March 26, 2013

  Actual Average Record
Temperature  
Mean Temperature 29 °F 34 °F  
Max Temperature 48 °F 46 °F 64 °F (2004)
Min Temperature 10 °F 22 °F 6 °F (2016)
Degree Days  
Heating Degree Days 36 31  
Month to date heating degree days 936 906  
Since 1 July heating degree days 6952 7225  
Cooling Degree Days 0 0  
Month to date cooling degree days 0 0  
Year to date cooling degree days 0 0  
Moisture  
Dew Point 14 °F    
Average Humidity 45    
Maximum Humidity 67    
Minimum Humidity 23    
Precipitation  
Precipitation 0.00 in 0.05 in 0.43 in (2001)
Month to date precipitation 1.06 1.05  
Year to date precipitation 2.21 3.29  
Sea Level Pressure  
Sea Level Pressure 30.01 in    
Wind  
Wind Speed 6 mph (SSE)    
Max Wind Speed 16 mph    
Max Gust Speed 24 mph    
Visibility 10 miles    
Events      
T = Trace of Precipitation, MM = Missing Value Source: NWS Daily Summary

Daily Weather History Graph

Daily Weather History Graph

Search for Another Location

Airport or City:

Astronomy

Mar. 26, 2013 Rise Set
Actual Time 7:00 AM MDT 7:25 PM MDT
Civil Twilight 6:34 AM MDT 7:52 PM MDT
Nautical Twilight 6:02 AM MDT 8:24 PM MDT
Astronomical Twilight 5:30 AM MDT 8:56 PM MDT
Moon 7:05 PM MDT (3/26) 6:18 AM MDT (3/26)
Length of Visible Light 13h 18m
Length of Day
12h 24m
Waxing Gibbous, 99% of the Moon is Illuminated
Mar 26
Waxing Gibbous
Mar 27
Full
Apr 2
Last Quarter
Apr 10
New
Apr 18
First Quarter

Hourly Weather History & Observations

Time (MDT) Temp. Windchill Dew Point Humidity Pressure Visibility Wind Dir Wind Speed Gust Speed Precip Events Conditions
12:53 AM 12.0 °F 0.5 °F 1.0 °F 61% 30.22 in 10.0 mi SSW 8.1 mph - N/A   Clear
1:53 AM 14.0 °F 2.0 °F 1.9 °F 59% 30.17 in 10.0 mi SW 9.2 mph - N/A   Partly Cloudy
2:53 AM 10.9 °F - 1.0 °F 64% 30.17 in 10.0 mi Calm Calm - N/A   Mostly Cloudy
3:53 AM 12.9 °F - 3.9 °F 67% 30.13 in 10.0 mi Calm Calm - N/A   Overcast
5:53 AM 17.1 °F 7.6 °F 7.0 °F 65% 30.12 in 10.0 mi SE 6.9 mph - N/A   Overcast
6:53 AM 19.0 °F - 10.0 °F 68% 30.14 in 10.0 mi Calm Calm - N/A   Overcast
7:53 AM 21.9 °F 17.2 °F 10.0 °F 60% 30.14 in 10.0 mi SSW 3.5 mph - N/A   Mostly Cloudy
8:53 AM 25.0 °F - 12.0 °F 58% 30.12 in 10.0 mi Calm Calm - N/A   Mostly Cloudy
9:53 AM 32.0 °F 28.7 °F 12.9 °F 45% 30.05 in 10.0 mi NW 3.5 mph - N/A   Clear
10:53 AM 37.0 °F 33.3 °F 16.0 °F 42% 30.02 in 10.0 mi NNE 4.6 mph - N/A   Clear
11:53 AM 39.9 °F 35.8 °F 17.1 °F 40% 30.00 in 10.0 mi NNW 5.8 mph - N/A   Mostly Cloudy
12:53 PM 43.0 °F 38.8 °F 17.1 °F 35% 29.96 in 10.0 mi North 6.9 mph - N/A   Clear
1:53 PM 45.0 °F 39.3 °F 15.1 °F 30% 29.94 in 10.0 mi NNE 11.5 mph 16.1 mph N/A   Partly Cloudy
2:53 PM 48.0 °F - 12.9 °F 24% 29.92 in 10.0 mi Variable 3.5 mph - N/A   Scattered Clouds
3:53 PM 46.0 °F - 10.9 °F 24% 29.91 in 10.0 mi Calm Calm - N/A   Partly Cloudy
4:53 PM 46.0 °F 40.6 °F 16.0 °F 30% 29.88 in 10.0 mi North 11.5 mph - N/A   Scattered Clouds
5:53 PM 43.0 °F 40.3 °F 19.0 °F 38% 29.89 in 10.0 mi North 4.6 mph - N/A   Mostly Cloudy
6:53 PM 42.1 °F 36.1 °F 19.9 °F 41% 29.90 in 10.0 mi SE 10.4 mph - N/A   Mostly Cloudy
7:53 PM 37.0 °F 31.6 °F 25.0 °F 62% 29.93 in 10.0 mi South 6.9 mph - N/A   Mostly Cloudy
8:53 PM 39.9 °F 33.4 °F 21.9 °F 49% 29.91 in 10.0 mi SSE 10.4 mph - N/A   Overcast
9:53 PM 37.9 °F 32.1 °F 24.1 °F 57% 29.91 in 10.0 mi SSE 8.1 mph - N/A   Overcast
10:53 PM 37.9 °F 33.5 °F 24.1 °F 57% 29.88 in 10.0 mi SSE 5.8 mph - N/A   Overcast
11:53 PM 37.0 °F 29.8 °F 24.1 °F 59% 29.86 in 10.0 mi SE 10.4 mph - N/A   Overcast